Location: Newark
(41.6500°N, 71.4833°W)
Time: 12:53:37
(UTC+00:00)

Explorer 7 - All Passes

Search period start: 28 January 2020 00:00
Search period end: 07 February 2020 00:00
Orbit: 485 x 679 km, 50.3° (Epoch: 28 January)

Date Brightness Start Highest point End Pass type
(mag) Time Alt. Az. Time Alt. Az. Time Alt. Az.
28 Jan - 01:54:15 10° SW 01:58:00 51° SE 02:01:40 10° ENE night (unlit)
28 Jan - 03:35:06 10° W 03:38:35 34° NNW 03:42:03 10° NE night (unlit)
28 Jan - 05:16:52 10° NW 05:19:50 21° N 05:22:50 10° NE night (unlit)
28 Jan - 06:57:31 10° NW 07:01:03 37° NNE 07:04:42 10° E night (unlit)
28 Jan - 08:37:54 10° WNW 08:41:37 47° SW 08:45:29 10° SE visible
29 Jan - 00:21:03 10° SSE 00:22:53 13° SE 00:24:42 10° ESE visible
29 Jan - 01:59:02 10° SW 02:02:53 85° SSE 02:06:40 10° ENE night (unlit)
29 Jan - 03:40:25 10° WNW 03:43:41 27° NNW 03:46:57 10° NE night (unlit)
29 Jan - 05:21:59 10° NW 05:25:01 22° N 05:28:04 10° ENE night (unlit)
29 Jan - 07:02:23 10° NW 07:06:05 51° NNE 07:09:54 10° ESE night (unlit)
29 Jan - 08:43:05 10° WNW 08:46:25 28° SW 08:49:53 10° SSE night (unlit)
30 Jan - 00:24:32 10° S 00:27:37 22° SE 00:30:36 10° E visible
30 Jan - 02:04:01 10° WSW 02:07:50 61° NNW 02:11:34 10° NE night (unlit)
30 Jan - 03:45:44 10° WNW 03:48:50 23° N 03:51:55 10° NE night (unlit)
30 Jan - 05:26:59 10° NW 05:30:10 25° NNE 05:33:23 10° ENE night (unlit)
30 Jan - 07:07:17 10° NW 07:11:04 78° NNE 07:15:00 10° ESE night (unlit)
30 Jan - 08:48:37 10° W 08:51:11 17° SW 08:53:49 10° S night (unlit)
31 Jan - 00:28:45 10° SSW 00:32:24 36° SE 00:35:55 10° ENE visible
31 Jan - 02:09:10 10° W 02:12:51 42° NNW 02:16:27 10° NE night (unlit)
31 Jan - 03:51:01 10° NW 03:54:00 22° N 03:56:59 10° NE night (unlit)
31 Jan - 05:31:55 10° NW 05:35:18 30° NNE 05:38:43 10° E night (unlit)
31 Jan - 07:12:14 10° WNW 07:15:59 66° SW 07:19:52 10° SE night (unlit)
01 Feb - 00:33:21 10° SW 00:37:15 61° SE 00:41:01 10° ENE visible
01 Feb - 02:14:26 10° W 02:17:54 32° NNW 02:21:19 10° NE night (unlit)
01 Feb - 03:56:13 10° NW 03:59:11 22° N 04:02:09 10° NE night (unlit)
01 Feb - 05:36:47 10° NW 05:40:22 40° NNE 05:44:00 10° E night (unlit)
01 Feb - 07:17:17 10° WNW 07:20:50 39° SW 07:24:30 10° SSE night (unlit)
01 Feb - 22:59:33 10° S 23:02:03 16° SE 23:04:30 10° E visible
02 Feb - 00:38:11 10° WSW 00:42:09 83° NNW 00:45:58 10° ENE visible
02 Feb - 02:19:45 10° WNW 02:23:02 26° NNW 02:26:14 10° NE night (unlit)
02 Feb - 04:01:17 10° NW 04:04:22 23° N 04:07:26 10° ENE night (unlit)
02 Feb - 05:41:40 10° NW 05:45:23 58° NNE 05:49:10 10° ESE night (unlit)
02 Feb - 07:22:34 10° W 07:25:37 23° SW 07:28:46 10° S night (unlit)
02 Feb - 23:03:23 10° SSW 23:06:48 26° SE 23:10:06 10° ENE visible
03 Feb - 00:43:14 10° WSW 00:47:07 54° NNW 00:50:52 10° NE visible
03 Feb - 02:25:04 10° WNW 02:28:10 23° N 02:31:14 10° NE night (unlit)
03 Feb - 04:06:16 10° NW 04:09:30 26° NNE 04:12:44 10° ENE night (unlit)
03 Feb - 05:46:35 10° WNW 05:50:20 89° NNE 05:54:10 10° ESE night (unlit)
03 Feb - 07:28:21 10° W 07:30:22 14° SW 07:32:24 10° SSW night (unlit)
03 Feb - 23:07:44 10° SSW 23:11:37 44° SE 23:15:19 10° ENE visible
04 Feb - 00:48:25 10° W 00:52:09 39° NNW 00:55:44 10° NE visible
04 Feb - 02:30:20 10° NW 02:33:20 22° N 02:36:19 10° NE night (unlit)
04 Feb - 04:11:11 10° NW 04:14:37 33° NNE 04:18:03 10° E night (unlit)
04 Feb - 05:51:33 10° WNW 05:55:14 55° SW 05:58:59 10° SE night (unlit)
04 Feb - 21:35:04 10° SSE 21:36:30 12° SE 21:37:55 10° ESE daylight
04 Feb - 23:12:25 10° SW 23:16:29 73° SE 23:20:21 10° ENE visible
05 Feb - 00:53:43 10° W 00:57:14 30° NNW 01:00:37 10° NE visible
05 Feb - 02:35:29 10° NW 02:38:31 22° N 02:41:31 10° ENE night (unlit)
05 Feb - 04:16:03 10° NW 04:19:40 44° NNE 04:23:18 10° E night (unlit)
05 Feb - 05:56:40 10° WNW 06:00:03 32° SW 06:03:30 10° SSE night (unlit)
05 Feb - 21:38:10 10° S 21:41:12 20° SE 21:44:08 10° E daylight
05 Feb - 23:17:19 10° WSW 23:21:25 73° NNW 23:25:17 10° NE visible
06 Feb - 00:59:03 10° WNW 01:02:20 25° NNW 01:05:33 10° NE visible
06 Feb - 02:40:32 10° NW 02:43:41 24° N 02:46:48 10° ENE night (unlit)
06 Feb - 04:20:56 10° NW 04:24:41 66° NNE 04:28:25 10° ESE night (unlit)
06 Feb - 06:02:04 10° W 06:04:49 19° SW 06:07:37 10° S night (unlit)
06 Feb - 21:42:14 10° SSW 21:45:59 32° SE 21:49:33 10° ENE daylight
06 Feb - 23:22:25 10° WSW 23:26:23 49° NNW 23:30:10 10° NE visible
